Regional Weather Roundup
Issued by NWS Goodland, KS

Home | Current Version | Previous Version | Text Only | Print | Product List | Glossary On
Versions: 1 2 3 4 5 6 7 8 9 10 11 12 13 14 15 16 17 18 19 20 21 22 23 24 25 26 27 28 29 30 31 32 33 34 35 36 37 38 39 40 41 42 43 44 45 46 47 48 49 50
000
ASUS43 KGLD 070808
RWRGLD

GOODLAND FORECAST AREA HOURLY WEATHER ROUNDUP
NATIONAL WEATHER SERVICE GOODLAND KS
100 AM MST SUN FEB 07 2016

...OFFICIAL OBSERVATIONS...

CITY           SKY/WX    TMP DP  RH WIND       PRES   REMARKS
GOODLAND KS    CLOUDY    30  23  75 NW9       30.12S
HILL CITY KS   CLOUDY    39  28  64 NW10      30.09R
IMPERIAL NEB     N/A     33  24  69 NW9       30.11S
MCCOOK NEB     CLOUDY    36  27  69 W12       30.10S
AKRON CO       CLOUDY    30  22  72 N16       30.11R WCI  19
BURLINGTON CO  CLOUDY    34  22  61 NW7       30.14R
LIMON CO       CLOUDY    32  18  56 W14       30.09F
$$

...UNOFFICIAL OBSERVATIONS...

CITY           SKY/WX    TMP DP  RH WIND       PRES   REMARKS
COLBY KS       CLEAR     37  28  70 NW14G20   30.10F
GOVE KS          N/A     38  32  79 MISG        N/A
LENORA KS        N/A     37  32  82 MISG        N/A
NORTON KS      CLEAR     36  25  64 W13       30.07S
SHARON SPRINGS   N/A     36  27  68 NW6         N/A
TRENTON NEB      N/A     34  32  92 MISG        N/A
KIT CARSON CO    N/A     33  23  66 MISG        N/A
YUMA CO          N/A     32  24  73 NE13        N/A
$$



USA.gov is the U.S. government's official web portal to all federal, state and local government web resources and services.